Location: DARK SKY Beskydy - Park tmavé oblohy, www.darkskybeskydy.cz
(49.4926°N, 18.5016°E)
Time: 01:26:00
(UTC+01:00)

Tiangong - Pass Details

Date: 02 December 2022
Orbit: 383 x 386 km, 41.5° (Epoch: 28 January)

Event Time Altitude Azimuth Distance (km) Brightness Sun altitude
Rises 17:40:10 0° 226° (SW) 2,254 2.8 -17.3°
Reaches altitude 10° 17:42:52 10° 200° (SSW) 1,405 1.1 -17.7°
Maximum altitude 17:44:43 15° 165° (SSE) 1,169 0.3 -18.0°
Enters shadow 17:45:03 14° 158° (SSE) 1,177 0.2 -18.1°
